EW5044 Weather Reports


Display with metric or nautical units.
time (UTC)temp
F
wind
direction
speed
MPH
gust
MPH
rain 1hr
in
rain 24hr
in
rain mn
in
humidity
%
barometer
mb
20260510105207 58 182 3.0 4.0 0.00 0.00 0.00 90 1018.4
20260510104704 58 183 3.0 3.0 0.00 0.00 0.00 88 1018.1
20260510104201 58 188 2.0 3.0 0.00 0.00 0.00 87 1018.0
20260510103658 58 176 2.0 4.0 0.00 0.00 0.00 87 1018.2
20260510103155 58 189 2.0 3.0 0.00 0.00 0.00 87 1018.3
20260510102655 57 234 0.0 2.0 0.00 0.00 0.00 87 1018.0
20260510102151 58 214 2.0 3.0 0.00 0.00 0.00 88 1018.4
20260510101648 58 194 3.0 3.0 0.00 0.00 0.00 86 1018.1
20260510101147 59 141 2.0 3.0 0.00 0.00 0.00 85 1018.2
20260510100642 59 180 3.0 5.0 0.00 0.00 0.00 83 1018.4
20260510100140 60 186 3.0 3.0 0.00 0.00 0.00 81 1018.2
20260510095635 60 215 0.0 3.0 0.00 0.00 0.00 81 1018.3
20260510095131 60 209 2.0 3.0 0.00 0.00 0.00 80 1018.0
20260510094629 61 216 2.0 2.0 0.00 0.00 0.00 78 1017.9
20260510094125 61 200 1.0 3.0 0.00 0.00 0.00 77 1017.7
20260510093622 61 270 2.0 2.0 0.00 0.00 0.00 78 1017.7
20260510093119 61 212 2.0 2.0 0.00 0.00 0.00 77 1017.4
20260510092615 62 228 2.0 4.0 0.00 0.00 0.00 78 1017.5
20260510092115 62 180 0.0 2.0 0.00 0.00 0.00 75 1017.4
20260510091612 63 225 4.0 4.0 0.00 0.00 0.00 75 1017.5
20260510091108 63 222 3.0 5.0 0.00 0.00 0.00 71 1017.4
20260510090605 62 152 2.0 5.0 0.00 0.00 0.00 75 1017.6
20260510090101 63 158 2.0 4.0 0.00 0.00 0.00 73 1017.3
20260510085556 63 152 5.0 5.0 0.00 0.00 0.00 74 1017.3
20260510085052 62 193 3.0 3.0 0.00 0.00 0.00 74 1017.3
20260510084549 61 349 2.0 3.0 0.00 0.00 0.00 76 1017.3
20260510084045 61 139 2.0 3.0 0.00 0.00 0.00 79 1017.3
20260510083542 61 158 2.0 3.0 0.00 0.00 0.00 81 1017.2
20260510083038 61 334 0.0 3.0 0.00 0.00 0.00 79 1017.4
20260510082535 61 324 3.0 3.0 0.00 0.00 0.00 78 1017.2
20260510082031 61 15 0.0 3.0 0.00 0.00 0.00 78 1017.4
20260510081526 61 334 5.0 9.0 0.00 0.00 0.00 79 1017.2
20260510081022 61 353 8.0 10.0 0.00 0.00 0.00 79 1017.1
20260510080521 61 346 11.0 13.0 0.00 0.00 0.00 79 1016.9
20260510080018 63 357 2.0 3.0 0.00 0.00 0.00 80 1016.6
20260510075515 63 337 0.0 2.0 0.00 0.00 0.00 75 1016.6
20260510075006 64 0 0.0 2.0 0.00 0.00 0.00 71 1016.1
20260510074504 64 130 3.0 3.0 0.00 0.00 0.00 72 1016.1
20260510073959 64 147 3.0 4.0 0.00 0.00 0.00 73 1016.3
20260510073455 64 166 4.0 5.0 0.00 0.00 0.00 71 1016.4
20260510072952 64 169 6.0 7.0 0.00 0.00 0.00 70 1016.4
20260510072449 64 194 4.0 10.0 0.00 0.00 0.00 72 1016.6
20260510071944 64 177 5.0 8.0 0.00 0.00 0.00 73 1016.6
20260510071441 63 196 4.0 7.0 0.00 0.00 0.00 73 1016.4
20260510070939 63 194 5.0 10.0 0.00 0.00 0.00 74 1016.5
20260510070436 62 185 4.0 8.0 0.00 0.00 0.00 77 1016.5
20260510065932 62 194 3.0 4.0 0.00 0.00 0.00 81 1016.6
20260510065429 62 216 2.0 3.0 0.00 0.00 0.00 80 1016.6
20260510064925 62 228 2.0 3.0 0.00 0.00 0.00 79 1016.5
20260510064423 63 180 3.0 5.0 0.00 0.00 0.00 75 1016.7
20260510063919 62 186 4.0 6.0 0.00 0.00 0.00 76 1016.5
20260510063415 62 170 9.0 9.0 0.00 0.00 0.00 77 1016.7
20260510062913 60 172 4.0 7.0 0.00 0.00 0.00 81 1016.7
20260510062408 59 178 4.0 5.0 0.00 0.00 0.00 86 1016.6
20260510061904 58 167 5.0 6.0 0.00 0.00 0.00 88 1016.7
20260510061401 58 174 4.0 4.0 0.00 0.00 0.00 90 1016.9
20260510060856 58 167 3.0 3.0 0.00 0.00 0.00 89 1016.8
20260510060354 58 188 2.0 3.0 0.00 0.00 0.00 90 1017.1
20260510055850 58 206 0.0 2.0 0.00 0.00 0.00 92 1017.0
20260510055349 58 203 0.0 2.0 0.00 0.00 0.00 92 1017.1
20260510054843 58 206 0.0 2.0 0.00 0.00 0.00 93 1017.1
20260510054339 57 234 0.0 2.0 0.00 0.00 0.00 91 1017.1
20260510053833 57 220 2.0 2.0 0.00 0.00 0.00 92 1017.4
20260510053329 57 254 1.0 2.0 0.00 0.00 0.00 92 1017.3
20260510052826 57 180 2.0 2.0 0.00 0.00 0.00 92 1017.1
20260510052322 57 188 0.0 2.0 0.00 0.00 0.00 93 1017.4
20260510051818 57 239 2.0 2.0 0.00 0.00 0.00 92 1017.2
20260510051315 57 257 0.0 2.0 0.00 0.00 0.00 92 1017.0
20260510050812 57 276 0.0 2.0 0.00 0.00 0.00 91 1017.0
20260510050309 57 217 2.0 2.0 0.00 0.00 0.00 91 1016.9
20260510045806 56 236 2.0 3.0 0.00 0.00 0.00 93 1016.7
20260510045306 56 219 2.0 3.0 0.00 0.00 0.00 93 1017.0
20260510044759 57 209 2.0 2.0 0.00 0.00 0.00 93 1016.9
20260510044256 57 185 2.0 2.0 0.00 0.00 0.00 92 1016.9
20260510043752 57 206 1.0 3.0 0.00 0.00 0.00 92 1016.7
20260510043243 58 203 2.0 2.0 0.00 0.00 0.00 93 1016.8
20260510042740 57 148 2.0 3.0 0.00 0.00 0.00 93 1017.0
20260510042236 57 209 2.0 2.0 0.00 0.00 0.00 92 1016.8
20260510041732 57 246 1.0 2.0 0.00 0.00 0.00 90 1016.9
20260510041230 57 228 2.0 2.0 0.00 0.00 0.00 91 1016.8
20260510040726 57 213 2.0 2.0 0.00 0.00 0.00 91 1016.8
20260510040223 57 194 2.0 2.0 0.00 0.00 0.00 91 1016.8
20260510035718 58 212 2.0 3.0 0.00 0.00 0.00 90 1016.8
20260510035215 58 217 3.0 3.0 0.00 0.00 0.00 90 1016.7
20260510034711 58 228 2.0 3.0 0.00 0.00 0.00 89 1016.7
20260510034209 59 197 2.0 3.0 0.00 0.00 0.00 88 1016.8
20260510033704 59 173 1.0 3.0 0.00 0.00 0.00 87 1016.4
20260510033203 60 194 3.0 3.0 0.00 0.00 0.00 86 1016.0
20260510032658 61 192 0.0 2.0 0.00 0.00 0.00 86 1016.1
20260510032154 61 213 0.0 2.0 0.00 0.00 0.00 83 1015.9
20260510031648 62 237 2.0 3.0 0.00 0.00 0.00 82 1015.9
20260510031146 61 99 0.0 2.0 0.00 0.00 0.00 84 1015.8
20260510030640 60 353 0.0 2.0 0.00 0.00 0.00 86 1015.7
20260510030138 60 270 0.0 2.0 0.00 0.00 0.00 86 1015.6
20260510025635 60 229 2.0 2.0 0.00 0.00 0.00 85 1015.8
20260510025132 60 214 2.0 2.0 0.00 0.00 0.00 84 1015.8
20260510024629 61 221 2.0 2.0 0.00 0.00 0.00 85 1015.6
20260510024126 61 263 1.0 2.0 0.00 0.00 0.00 85 1015.7
20260510023621 61 202 2.0 2.0 0.00 0.00 0.00 84 1015.5
20260510023119 61 190 3.0 3.0 0.00 0.00 0.00 84 1015.3
20260510022619 62 183 3.0 3.0 0.00 0.00 0.00 83 1015.0
20260510022114 63 188 2.0 2.0 0.00 0.00 0.00 82 1014.8
20260510021605 62 196 2.0 2.0 0.00 0.00 0.00 82 1015.1
20260510021102 62 177 2.0 3.0 0.00 0.00 0.00 82 1015.0
20260510020555 64 180 2.0 3.0 0.00 0.00 0.00 77 1014.8
20260510020051 64 203 2.0 2.0 0.00 0.00 0.00 77 1014.5
20260510015548 64 175 1.0 3.0 0.00 0.00 0.00 76 1014.4
20260510015044 63 203 2.0 3.0 0.00 0.00 0.00 78 1014.5
20260510014540 64 194 2.0 3.0 0.00 0.00 0.00 77 1014.2
20260510014037 64 204 0.0 2.0 0.00 0.00 0.00 76 1014.2
20260510013531 65 194 1.0 2.0 0.00 0.00 0.00 74 1014.0
20260510013028 66 198 2.0 2.0 0.00 0.00 0.00 71 1014.0
20260510012522 67 198 2.0 3.0 0.00 0.00 0.00 72 1014.1
20260510012019 67 191 2.0 2.0 0.00 0.00 0.00 71 1013.8
20260510011518 68 233 2.0 2.0 0.00 0.00 0.00 73 1013.7
20260510011014 68 233 2.0 2.0 0.00 0.00 0.00 73 1013.5
20260510010511 70 217 2.0 2.0 0.00 0.00 0.00 69 1013.8
20260510010008 71 210 2.0 3.0 0.00 0.00 0.00 69 1013.8
20260510005504 72 209 2.0 2.0 0.00 0.00 0.00 72 1013.7
20260510005001 74 199 2.0 3.0 0.00 0.00 0.00 68 1013.5
20260510004459 76 218 2.0 2.0 0.00 0.00 0.00 68 1013.5
20260510003957 77 228 2.0 2.0 0.00 0.00 0.00 56 1013.9
20260510003453 75 253 2.0 2.0 0.00 0.00 0.00 57 1013.4
20260510002948 74 166 2.0 3.0 0.00 0.00 0.00 57 1013.5
20260510002444 73 213 2.0 2.0 0.00 0.00 0.00 64 1013.4
20260510001941 75 180 2.0 3.0 0.00 0.00 0.00 61 1013.8
20260510001438 78 191 2.0 3.0 0.00 0.00 0.00 61 1013.5
20260510000936 80 206 2.0 3.0 0.00 0.00 0.00 50 1013.7
20260510000433 81 202 2.0 3.0 0.00 0.00 0.00 53 1013.5
20260509235929 82 204 2.0 3.0 0.00 0.00 0.00 46 1013.5
20260509235426 82 199 3.0 3.0 0.00 0.00 0.00 41 1013.7
20260509234922 82 199 2.0 2.0 0.00 0.00 0.00 45 1013.5
20260509234419 82 202 2.0 3.0 0.00 0.00 0.00 46 1013.7
20260509233917 82 219 3.0 3.0 0.00 0.00 0.00 41 1013.5
20260509233414 81 228 2.0 3.0 0.00 0.00 0.00 42 1013.7
20260509232910 80 237 2.0 3.0 0.00 0.00 0.00 43 1013.7
20260509232408 80 225 3.0 3.0 0.00 0.00 0.00 46 1013.9
20260509231903 81 228 2.0 3.0 0.00 0.00 0.00 51 1013.5
20260509231400 80 240 2.0 2.0 0.00 0.00 0.00 42 1013.7
20260509230858 80 228 2.0 3.0 0.00 0.00 0.00 44 1013.7
20260509230355 81 225 3.0 4.0 0.00 0.00 0.00 48 1013.7
20260509225851 80 220 3.0 5.0 0.00 0.00 0.00 42 1013.8
20260509225348 80 216 4.0 5.0 0.00 0.00 0.00 45 1014.0
20260509224843 80 221 5.0 6.0 0.00 0.00 0.00 44 1013.9
20260509224340 80 202 5.0 6.0 0.00 0.00 0.00 40 1013.7
20260509223837 79 203 4.0 6.0 0.00 0.00 0.00 42 1013.5
20260509223333 78 225 4.0 6.0 0.00 0.00 0.00 46 1013.5
20260509222830 79 233 5.0 8.0 0.00 0.00 0.00 48 1013.8
20260509222326 80 248 5.0 5.0 0.00 0.00 0.00 43 1013.8
20260509221821 82 262 5.0 8.0 0.00 0.00 0.00 40 1013.7
20260509221319 83 252 3.0 3.0 0.00 0.00 0.00 42 1013.5
20260509220814 81 180 3.0 6.0 0.00 0.00 0.00 40 1013.8
20260509220310 81 210 4.0 8.0 0.00 0.00 0.00 37 1013.7
20260509215806 82 233 5.0 6.0 0.00 0.00 0.00 45 1013.8
20260509215306 82 190 4.0 6.0 0.00 0.00 0.00 39 1013.8
20260509214800 82 213 4.0 7.0 0.00 0.00 0.00 37 1013.8
20260509214257 82 225 4.0 7.0 0.00 0.00 0.00 37 1013.7
20260509213754 84 250 3.0 4.0 0.00 0.00 0.00 36 1014.0
20260509213249 84 214 2.0 2.0 0.00 0.00 0.00 34 1013.9
20260509212747 83 324 0.0 3.0 0.00 0.00 0.00 37 1014.1
20260509212244 81 346 0.0 7.0 0.00 0.00 0.00 38 1013.8
20260509211739 82 328 2.0 4.0 0.00 0.00 0.00 40 1014.0
20260509211236 82 323 3.0 4.0 0.00 0.00 0.00 39 1014.1
20260509210732 81 300 3.0 8.0 0.00 0.00 0.00 44 1014.2
20260509210231 82 267 8.0 9.0 0.00 0.00 0.00 38 1014.3
20260509205730 80 251 3.0 5.0 0.00 0.00 0.00 38 1014.4
20260509205229 80 259 6.0 11.0 0.00 0.00 0.00 39 1014.2
20260509204726 81 311 3.0 11.0 0.00 0.00 0.00 46 1014.3
20260509204222 81 251 7.0 11.0 0.00 0.00 0.00 39 1014.3
20260509203718 81 199 3.0 5.0 0.00 0.00 0.00 45 1014.3
20260509203218 81 210 4.0 7.0 0.00 0.00 0.00 45 1014.3
20260509202713 80 177 3.0 5.0 0.00 0.00 0.00 45 1014.4
20260509202208 81 229 4.0 6.0 0.00 0.00 0.00 45 1014.3
20260509201703 80 220 4.0 9.0 0.00 0.00 0.00 47 1014.3
20260509201201 80 220 3.0 6.0 0.00 0.00 0.00 43 1014.4
20260509200656 80 209 6.0 8.0 0.00 0.00 0.00 46 1014.4
20260509200151 79 245 9.0 9.0 0.00 0.00 0.00 46 1014.5
20260509195647 80 212 6.0 9.0 0.00 0.00 0.00 43 1014.5
20260509195142 80 256 7.0 9.0 0.00 0.00 0.00 49 1014.6
20260509194637 80 252 4.0 8.0 0.00 0.00 0.00 45 1014.7
20260509194134 79 265 7.0 13.0 0.00 0.00 0.00 46 1014.6
20260509193630 80 267 4.0 7.0 0.00 0.00 0.00 47 1014.8
20260509193125 80 212 5.0 9.0 0.00 0.00 0.00 48 1014.8
20260509192623 80 258 3.0 7.0 0.00 0.00 0.00 44 1014.8
20260509192117 80 270 3.0 5.0 0.00 0.00 0.00 39 1014.9
20260509191612 80 250 4.0 6.0 0.00 0.00 0.00 50 1014.8
20260509191109 79 186 4.0 6.0 0.00 0.00 0.00 48 1014.8
20260509190605 79 222 7.0 11.0 0.00 0.00 0.00 48 1014.9
20260509185600 80 227 6.0 14.0 0.00 0.00 0.00 43 1014.9
20260509185056 80 235 4.0 5.0 0.00 0.00 0.00 42 1015.1
20260509184555 78 228 4.0 7.0 0.00 0.00 0.00 42 1014.9
20260509184051 78 242 8.0 10.0 0.00 0.00 0.00 45 1015.1
20260509183546 78 331 0.0 7.0 0.00 0.00 0.00 46 1014.8
20260509183042 78 225 4.0 9.0 0.00 0.00 0.00 47 1015.0
20260509182539 78 300 3.0 10.0 0.00 0.00 0.00 47 1015.1
20260509182036 77 246 7.0 13.0 0.00 0.00 0.00 46 1015.1
20260509181534 78 266 3.0 4.0 0.00 0.00 0.00 50 1015.2
20260509181031 77 259 4.0 7.0 0.00 0.00 0.00 46 1015.2
20260509180527 78 243 6.0 9.0 0.00 0.00 0.00 51 1015.2
20260509180025 77 235 8.0 9.0 0.00 0.00 0.00 54 1015.2
20260509175519 77 265 7.0 11.0 0.00 0.00 0.00 50 1015.2
20260509175016 77 219 5.0 8.0 0.00 0.00 0.00 54 1015.4
20260509174513 77 278 5.0 11.0 0.00 0.00 0.00 56 1015.4
20260509174008 77 228 6.0 11.0 0.00 0.00 0.00 60 1015.3
20260509173502 77 226 5.0 6.0 0.00 0.00 0.00 56 1015.4
20260509172959 77 223 6.0 10.0 0.00 0.00 0.00 57 1015.3
20260509172456 77 272 7.0 9.0 0.00 0.00 0.00 59 1015.2
20260509171952 76 262 5.0 7.0 0.00 0.00 0.00 56 1015.4
20260509171448 75 225 8.0 9.0 0.00 0.00 0.00 59 1015.4
20260509170945 76 212 7.0 9.0 0.00 0.00 0.00 61 1015.4
20260509170441 76 233 4.0 4.0 0.00 0.00 0.00 62 1015.5
20260509165937 75 265 4.0 10.0 0.00 0.00 0.00 60 1015.3
20260509165436 76 188 3.0 6.0 0.00 0.00 0.00 61 1015.3
20260509164932 75 238 7.0 8.0 0.00 0.00 0.00 61 1015.3
20260509164428 75 263 5.0 8.0 0.00 0.00 0.00 68 1015.4
20260509163924 73 210 5.0 9.0 0.00 0.00 0.00 63 1015.4
20260509163421 75 215 6.0 6.0 0.00 0.00 0.00 67 1015.5
20260509162920 74 213 6.0 8.0 0.00 0.00 0.00 61 1015.4
20260509162419 73 218 7.0 10.0 0.00 0.00 0.00 64 1015.3
20260509161915 73 220 6.0 10.0 0.00 0.00 0.00 71 1015.3
20260509161411 72 229 5.0 8.0 0.00 0.00 0.00 70 1015.3
20260509160907 73 219 6.0 9.0 0.00 0.00 0.00 72 1015.3
20260509160408 73 287 7.0 9.0 0.00 0.00 0.00 68 1015.5
20260509155903 72 245 4.0 10.0 0.00 0.00 0.00 71 1015.4
20260509155400 72 213 5.0 8.0 0.00 0.00 0.00 71 1015.4
20260509154856 71 209 6.0 8.0 0.00 0.00 0.00 71 1015.3
20260509154353 71 211 5.0 8.0 0.00 0.00 0.00 75 1015.4
20260509153850 70 245 4.0 9.0 0.00 0.00 0.00 75 1015.1
20260509153347 71 252 4.0 6.0 0.00 0.00 0.00 79 1015.3
20260509152844 70 248 8.0 10.0 0.00 0.00 0.00 76 1015.2
20260509152339 69 235 8.0 9.0 0.00 0.00 0.00 70 1015.0
20260509151837 69 253 5.0 7.0 0.00 0.00 0.00 77 1015.2
20260509151333 69 257 8.0 9.0 0.00 0.00 0.00 79 1015.2
20260509150832 68 223 5.0 7.0 0.00 0.00 0.00 82 1014.9
20260509150329 68 225 5.0 7.0 0.00 0.00 0.00 81 1015.4
20260509145826 67 209 9.0 10.0 0.00 0.00 0.00 82 1015.2
20260509145321 67 243 6.0 10.0 0.00 0.00 0.00 83 1015.4
20260509144817 67 229 5.0 6.0 0.00 0.00 0.00 83 1015.1
20260509144315 66 245 5.0 8.0 0.00 0.00 0.00 85 1015.3
20260509143812 66 226 4.0 7.0 0.00 0.00 0.00 86 1015.1
20260509143309 66 192 4.0 8.0 0.00 0.00 0.00 86 1015.3
20260509142805 65 207 6.0 10.0 0.00 0.00 0.00 85 1015.4
20260509142301 65 225 6.0 7.0 0.00 0.00 0.00 87 1015.0
20260509141757 64 206 7.0 8.0 0.00 0.00 0.00 86 1015.2
20260509141254 63 216 6.0 9.0 0.00 0.00 0.00 87 1015.3
20260509140750 64 220 5.0 9.0 0.00 0.00 0.00 90 1015.3
20260509140248 63 217 8.0 9.0 0.00 0.00 0.00 89 1015.0
20260509135745 63 217 6.0 8.0 0.00 0.00 0.00 90 1015.0
20260509135243 62 209 5.0 9.0 0.00 0.00 0.00 91 1015.1
20260509134740 62 208 5.0 9.0 0.00 0.00 0.00 91 1014.9
20260509134237 62 213 5.0 8.0 0.00 0.00 0.00 92 1014.9
20260509133734 61 238 3.0 7.0 0.00 0.00 0.00 92 1014.9
20260509133231 61 212 7.0 7.0 0.00 0.00 0.00 92 1014.8
20260509132730 61 229 5.0 9.0 0.00 0.00 0.00 94 1014.9
20260509132228 61 209 4.0 9.0 0.00 0.00 0.00 94 1015.0
20260509131724 60 200 6.0 10.0 0.00 0.00 0.00 94 1014.9
20260509131220 60 194 6.0 9.0 0.00 0.00 0.00 95 1015.0
20260509130717 60 207 6.0 8.0 0.00 0.00 0.00 95 1014.8
20260509130213 59 212 5.0 7.0 0.00 0.00 0.00 95 1014.8
20260509125709 59 220 6.0 7.0 0.00 0.00 0.00 96 1014.7
20260509125201 59 213 4.0 5.0 0.00 0.00 0.00 96 1014.7
20260509124657 59 219 3.0 3.0 0.00 0.00 0.00 97 1014.8
20260509124154 59 213 4.0 4.0 0.00 0.00 0.00 97 1014.6
20260509123653 58 192 2.0 3.0 0.00 0.00 0.00 98 1014.7
20260509123149 58 206 2.0 3.0 0.00 0.00 0.00 99 1014.7
20260509122644 57 202 2.0 3.0 0.00 0.00 0.00 99 1014.6
20260509122141 55 209 2.0 3.0 0.00 0.00 0.00 99 1014.5
20260509121638 53 229 2.0 2.0 0.00 0.00 0.00 99 1014.6
20260509121136 53 210 2.0 2.0 0.00 0.00 0.00 99 1014.3
20260509120634 51 220 0.0 2.0 0.00 0.00 0.00 99 1014.4
20260509120132 51 197 2.0 2.0 0.00 0.00 0.00 99 1014.5
20260509115629 51 203 1.0 3.0 0.02 0.00 0.00 99 1014.3
20260509115127 50 206 1.0 2.0 0.02 0.00 0.00 99 1014.4
20260509114625 51 174 0.0 3.0 0.00 0.00 0.00 99 1014.3
20260509114123 50 157 1.0 3.0 0.00 0.00 0.00 99 1014.3
20260509113621 49 183 2.0 3.0 0.00 0.00 0.00 99 1014.3
20260509113118 49 174 3.0 3.0 0.00 0.00 0.00 99 1014.3
20260509112614 49 180 2.0 3.0 0.00 0.00 0.00 99 1014.1
20260509112111 50 180 2.0 2.0 0.00 0.00 0.00 99 1014.3
20260509111608 50 187 1.0 2.0 0.00 0.00 0.00 99 1013.9
20260509111105 50 184 2.0 2.0 0.00 0.00 0.00 99 1014.1
20260509110602 49 184 2.0 3.0 0.00 0.00 0.00 99 1014.1
20260509110059 49 180 1.0 3.0 0.00 0.00 0.00 99 1014.2
20260509105558 49 180 0.0 2.0 0.00 0.00 0.00 99 1014.3